Weather for Denmark

Place Alerts Temp. Conditions Humidity Pressure Wind Updated
Aalborg 0 66.6 °F 65% 30.04 in Calm 8:07 PM CEST
Abed 0 72.3 °F 66% 29.96 in SE at 4.7 mph 8:07 PM CEST
Aggersund 0 54 °F Clear 100% 30.04 in NE at 5 mph 4:20 AM CEST
Alestrup 0 65.1 °F 76% 29.98 in WNW at 3.0 mph 8:00 PM CEST
Allerslev 0            
Andaks 0 71.2 °F 54% 29.98 in Calm 8:08 PM CEST
Anholt 0            
Arzheukhovo 0 81 °F Partly Cloudy 65% 29.98 in WSW at 4 mph 7:00 PM +03
Askov 0 71.8 °F 63% 29.95 in Calm 8:07 PM CEST
Bakkerup 0 71.3 °F 64% 30.00 in Calm 8:00 PM CEST
Billund 0 66.7 °F 68% 29.95 in Calm 8:07 PM CEST
Blakrog 0 78.8 °F 53% 29.92 in ESE at 4.5 mph 8:05 PM CEST
Bogebjerg 0 75.4 °F 64% 29.96 in Calm 8:07 PM CEST
Bondebyen 0 73.0 °F 56% 30.03 in Calm 8:07 PM CEST
Borre 0 68.7 °F 62% 30.12 in Calm 8:07 PM CEST
Borre 0 68.7 °F 99% 29.95 in South at 2.0 mph 8:07 PM CEST
Borris 0 71.6 °F 60% 29.98 in SE at 2.2 mph 8:07 PM CEST
Boto By 0 62 °F 87% 29.96 in East at 8 mph 4:00 AM CEST
Brandelev 0 73.0 °F 67% 29.99 in Calm 8:07 PM CEST
Brandsby 0            
Brandstrup 0 54 °F N/A 100% 29.95 in North at 5 mph 4:20 AM CEST
Bregninge 0 55 °F Clear 100% 29.95 in NNE at 6 mph 4:20 AM CEST
Brons 0 70.9 °F 65% 29.95 in Calm 8:07 PM CEST
Christianso 0 66.2 °F 66% 30.04 in WSW at 4.0 mph 8:00 PM CEST
Dostrup 0 73.8 °F 59% 29.95 in Calm 8:07 PM CEST
Esbjerg 0 55 °F Clear 100% 29.95 in NNE at 6 mph 4:20 AM CEST
Flakkebjerg 0 58 °F Clear 85% 30.01 in East at 9 mph 2:00 AM CEST
Foulum 0 67.6 °F 66% 29.98 in Calm 8:00 PM CEST
Frederikshavn 0 68.2 °F 61% 30.04 in SW at 4.9 mph 8:05 PM CEST
Freetown Christiania 0            
Gerdrup 0 71.8 °F 28% 30.31 in Calm 8:07 PM CEST
Gilleleje 0 70.9 °F 56% 30.06 in SW at 2.5 mph 8:07 PM CEST
Grena 0 73.0 °F 70% 30.01 in SW at 4.5 mph 8:07 PM CEST
Hadsund 0 52 °F Fog 94% 29.98 in Variable at 1 mph 4:20 AM CEST
Hammer Odde 0 66.2 °F 66% 30.04 in WSW at 4.0 mph 8:00 PM CEST
Hanstholm 0 63.7 °F 71% 30.19 in Calm 8:07 PM CEST
Hasle 0 64 °F Overcast 73% 30.04 in East at 9 mph 4:20 AM CEST
Hirtshals 0 62.6 °F 78% 30.04 in SW at 4.5 mph 8:07 PM CEST
Hoborg 0 67.6 °F 75% 29.97 in SSE at 2.0 mph 8:07 PM CEST
Hundested 0 70.5 °F 66% 30.63 in Calm 8:07 PM CEST
Hvide Sande 0 65.7 °F 75% 29.98 in South at 3.0 mph 8:00 PM CEST
Isenvad 0 52 °F Fog 94% 29.98 in Variable at 1 mph 4:20 AM CEST
Maribo 0 74.5 °F 58% 30.14 in South at 1.0 mph 8:00 PM CEST
Mastrup 0 69.6 °F 65% 30.00 in NNW at 2.0 mph 7:59 PM CEST
Mejrup 0 64.9 °F 73% 29.98 in West at 1.0 mph 7:45 PM CEST
Nordskov 0 67.1 °F 68% 29.98 in East at 1.8 mph 8:07 PM CEST
Odense 0 72.9 °F 57% 29.95 in WSW at 1.6 mph 8:07 PM CEST
Roskilde 0 70.3 °F 55% 30.02 in Calm 8:07 PM CEST
Silstrup 0 63.0 °F 72% 29.98 in WSW at 4.0 mph 8:07 PM CEST
Sindal 0 54 °F Clear 100% 30.04 in NE at 5 mph 4:20 AM CEST
Sjaelsmark 0 68.9 °F 98% 30.06 in Calm 8:07 PM CEST
Skagen 0 65.8 °F 67% 30.07 in WNW at 1.8 mph 8:07 PM CEST
Skive 0 66.9 °F 66% 29.98 in West at 6.5 mph 8:07 PM CEST
Skrydstrup 0 76.5 °F 50% 29.95 in WSW at 4.5 mph 8:07 PM CEST
Stauning 0 67.5 °F 70% 30.04 in NNE at 6.0 mph 8:07 PM CEST
Stenhoj 0 54 °F Clear 100% 30.04 in NE at 5 mph 4:20 AM CEST
Struer 0 64.0 °F 74% 29.98 in SW at 9.2 mph 8:07 PM CEST
Tarnby 0 75.6 °F 71% 30.02 in Calm 8:07 PM CEST
Thisted 0 63.7 °F 71% 30.19 in Calm 8:07 PM CEST
Tirstrup 0 67.5 °F 71% 30.01 in Calm 8:07 PM CEST
Toftlund 0 72.0 °F 15% 29.95 in Calm 8:07 PM CEST
Torsminde 0 63.0 °F 76% 29.98 in SSW at 4.5 mph 8:07 PM CEST
Tylstrup 0 65.5 °F 69% 30.04 in SSE at 3.4 mph 8:07 PM CEST
Vamdrup 0 70.9 °F 59% 29.95 in SW at 4.0 mph 8:07 PM CEST
Vandel 0 66.7 °F 68% 29.95 in Calm 8:07 PM CEST
Verstervig 0 61.2 °F 77% 29.98 in SSW at 4.9 mph 8:07 PM CEST
Vester Vedsted 0 70.9 °F 65% 29.95 in Calm 8:08 PM CEST

Alerts Legend

Tornado Warning Tornado Warning
Tornado Watch Tornado Watch
Severe Thunderstorm Warning Severe Thunderstorm Warning
Severe Thunderstorm Watch Severe Thunderstorm Watch
High Wind Advisory High Wind Advisory
Flood Warning Flood Warning
Flood Watch / Flood Statement Flood Watch / Flood Statement
Hurricane Local Statement Hurricane Local Statement
Winter Weather Statement Winter Weather Statement
Heat Advisory Heat Advisory
Dense Fog Advisory Dense Fog Advisory
Fire Weather Advisory Fire Weather Advisory
Hurricane Watch Special Weather Statement
Hurricane Warning Record Set
Tropical Storm Watch Public Report
Tropical Storm Warning Public Statement